Regional Weather Roundup
Issued by NWS

Home | Current Version | Previous Version | Text Only | Print | Product List | Glossary Off
Versions: 1 2 3 4 5 6 7 8 9 10 11 12 13 14 15 16 17 18 19 20 21 22 23 24 25 26 27 28 29 30 31 32 33 34 35 36 37 38 39 40 41 42 43 44 45 46 47 48 49 50

426
ASUS45 KCYS 261310
RWRWY

WYOMING REGIONAL WEATHER ROUNDUP
NATIONAL WEATHER SERVICE CHEYENNE WY
700 AM MDT WED APR 26 2017

NOTE:  "FAIR" INDICATES FEW OR NO CLOUDS BELOW 12,000 FEET
WITH NO SIGNIFICANT WEATHER AND/OR OBSTRUCTIONS TO VISIBILITY.

WYZ001-261400-
YELLOWSTONE NATIONAL PARK

CITY           SKY/WX    TMP DP  RH WIND       PRES   REMARKS
LK YELLOWSTONE   N/A     26  24  92 VRB3      29.81S
W YELLOWSTONE  NOT AVBL

$$
WYZ002>013-054>058-071-098>099-261400-
NORTHERN WYOMING

CITY           SKY/WX    TMP DP  RH WIND       PRES   REMARKS
JACKSON        CLOUDY    34  32  93 S9        29.82S WCI  26
CODY           CLOUDY    34  32  93 NE3       29.79R FOG
GREYBULL       CLOUDY    34  29  82 SE3       29.79F
WORLAND        FAIR      34  34 100 NW3       29.78S
SHERIDAN       CLOUDY    28  26  92 CALM      29.81S
BUFFALO        NOT AVBL
GILLETTE       CLOUDY    25  25 100 SW7       29.82R WCI  17
HULETT         FOG       25  23  93 CALM      29.85R VSB 1/2
NEWCASTLE      FAIR      23  18  80 NW6       29.84R WCI  16

$$
WYZ014>020-022>026-101>103-261400-
CENTRAL WYOMING

CITY           SKY/WX    TMP DP  RH WIND       PRES   REMARKS
BIG PINEY      CLOUDY    31  29  92 SE5       29.86R WCI  26
PINEDALE       CLOUDY    28  27  93 NW6       29.87S WCI  22
DUBOIS         FAIR      28  21  74 W9        29.80S WCI  20
LANDER         FAIR      30  25  81 W5        29.80R WCI  25
RIVERTON       FOG       29  29 100 W6        29.81S VSB<1/4 WCI  23
CASPER         FAIR      32  28  85 SW8       29.80R WCI  25
DOUGLAS        FAIR      26  24  92 CALM      29.81S

$$
WYZ021-027>030-104>119-261400-
SOUTHERN WYOMING

CITY           SKY/WX    TMP DP  RH WIND       PRES   REMARKS
EVANSTON       CLOUDY    30  28  92 SW9       29.90R WCI  22
KEMMERER         N/A     30  30 100 CALM      29.89R
FORT BRIDGER   PTSUNNY   33  28  82 SW13      29.91R WCI  24
ROCK SPRINGS   CLOUDY    33  29  85 SW13      29.88R WCI  24
DIXON            N/A     32  30  94 CALM      29.93R
RAWLINS        CLOUDY    32  28  85 SW8       29.85S WCI  25
SARATOGA       CLOUDY    30  28  93 S7        29.87S WCI  23
LARAMIE        FAIR      24  21  88 SE7       29.82S WCI  16
CHEYENNE       FAIR      33  24  69 NW10      29.80R WCI  25
TORRINGTON     FAIR      29  26  89 CALM      29.82S
PINE BLUFFS    FAIR      30  28  93 N6        29.83S WCI  24

$$




USA.gov is the U.S. government's official web portal to all federal, state and local government web resources and services.